| time (UTC) | temp C | wind direction | speed KPH | gust KPH | rain 1hr cm | rain 24hr cm | rain mn cm | humidity % | barometer mb |
| 20260505031803 | 10 | 154 | 3.2 | 11.3 | 0.00 | 0.00 | 0.00 | 83 | 1010.4 |
| 20260505031501 | 10 | 232 | 1.6 | 11.3 | 0.00 | 0.00 | 0.00 | 83 | 1010.7 |
| 20260505030902 | 10 | 185 | 3.2 | 12.9 | 0.00 | 0.00 | 0.00 | 83 | 1010.5 |
| 20260505030027 | 10 | 180 | 3.2 | 14.5 | 0.00 | 0.00 | 0.00 | 83 | 1010.8 |
| 20260505030001 | 11 | 178 | 3.2 | 14.5 | 0.00 | 0.00 | 0.00 | 83 | 1010.5 |
| 20260505025401 | 11 | 165 | 1.6 | 14.5 | 0.00 | 0.00 | 0.00 | 83 | 1010.5 |
| 20260505024509 | 10 | 207 | 0.0 | 12.9 | 0.00 | 0.00 | 0.00 | 83 | 1010.8 |
| 20260505024501 | 11 | 191 | 1.6 | 12.9 | 0.00 | 0.00 | 0.00 | 83 | 1010.6 |
| 20260505023601 | 11 | 168 | 3.2 | 9.7 | 0.00 | 0.00 | 0.00 | 83 | 1010.6 |
| 20260505023005 | 10 | 139 | 3.2 | 9.7 | 0.00 | 0.00 | 0.00 | 82 | 1010.8 |
| 20260505022702 | 11 | 159 | 1.6 | 11.3 | 0.00 | 0.00 | 0.00 | 82 | 1010.5 |
| 20260505021801 | 11 | 175 | 1.6 | 11.3 | 0.00 | 0.00 | 0.00 | 82 | 1010.6 |
| 20260505021502 | 10 | 223 | 1.6 | 9.7 | 0.00 | 0.00 | 0.00 | 82 | 1011.0 |
| 20260505020902 | 11 | 155 | 1.6 | 11.3 | 0.00 | 0.00 | 0.00 | 82 | 1010.7 |
| 20260505020009 | 10 | 163 | 1.6 | 12.9 | 0.00 | 0.00 | 0.00 | 81 | 1010.9 |
| 20260505020002 | 11 | 166 | 3.2 | 16.1 | 0.00 | 0.00 | 0.00 | 81 | 1010.7 |
| 20260505015402 | 11 | 199 | 3.2 | 14.5 | 0.00 | 0.00 | 0.00 | 81 | 1010.6 |
| 20260505014510 | 10 | 191 | 0.0 | 12.9 | 0.00 | 0.00 | 0.00 | 81 | 1010.8 |
| 20260505014502 | 11 | 181 | 3.2 | 16.1 | 0.00 | 0.00 | 0.00 | 81 | 1010.6 |
| 20260505013602 | 11 | 187 | 4.8 | 19.3 | 0.00 | 0.00 | 0.00 | 81 | 1010.6 |
| 20260505013007 | 11 | 166 | 6.4 | 19.3 | 0.00 | 0.00 | 0.00 | 80 | 1010.7 |
| 20260505012723 | 11 | 181 | 3.2 | 20.9 | 0.00 | 0.00 | 0.00 | 80 | 1010.4 |
| 20260505011802 | 11 | 179 | 3.2 | 14.5 | 0.00 | 0.00 | 0.00 | 79 | 1010.3 |
| 20260505011507 | 11 | 211 | 4.8 | 12.9 | 0.00 | 0.00 | 0.00 | 79 | 1010.6 |
| 20260505010902 | 11 | 178 | 4.8 | 14.5 | 0.00 | 0.00 | 0.00 | 79 | 1010.2 |
| 20260505010005 | 11 | 345 | 4.8 | 16.1 | 0.00 | 0.00 | 0.00 | 78 | 1010.3 |
| 20260505010002 | 11 | 168 | 3.2 | 16.1 | 0.00 | 0.00 | 0.00 | 78 | 1010.0 |
| 20260505005402 | 11 | 170 | 4.8 | 16.1 | 0.00 | 0.00 | 0.00 | 77 | 1009.9 |
| 20260505004511 | 11 | 146 | 4.8 | 17.7 | 0.00 | 0.00 | 0.00 | 77 | 1010.1 |
| 20260505004502 | 11 | 168 | 3.2 | 17.7 | 0.00 | 0.00 | 0.00 | 77 | 1009.8 |
| 20260505003602 | 11 | 175 | 4.8 | 19.3 | 0.00 | 0.00 | 0.00 | 76 | 1009.5 |
| 20260505003001 | 11 | 217 | 6.4 | 20.9 | 0.00 | 0.00 | 0.00 | 75 | 1009.8 |
| 20260505002702 | 11 | 193 | 4.8 | 20.9 | 0.00 | 0.00 | 0.00 | 75 | 1009.5 |
| 20260505001802 | 12 | 171 | 4.8 | 16.1 | 0.00 | 0.00 | 0.00 | 74 | 1009.3 |
| 20260505001509 | 11 | 131 | 3.2 | 16.1 | 0.00 | 0.00 | 0.00 | 73 | 1009.5 |
| 20260505000902 | 12 | 184 | 4.8 | 16.1 | 0.00 | 0.00 | 0.00 | 73 | 1009.2 |
| 20260505000009 | 12 | 139 | 3.2 | 27.4 | 0.00 | 0.00 | 0.00 | 72 | 1009.3 |
| 20260505000002 | 12 | 184 | 4.8 | 27.4 | 0.00 | 0.00 | 0.00 | 72 | 1009.0 |
| 20260504235423 | 12 | 176 | 4.8 | 27.4 | 0.00 | 0.00 | 0.00 | 72 | 1009.0 |
| 20260504234506 | 12 | 209 | 4.8 | 24.1 | 0.00 | 0.00 | 0.00 | 71 | 1009.1 |
| 20260504234502 | 12 | 174 | 4.8 | 24.1 | 0.00 | 0.00 | 0.00 | 71 | 1008.8 |
| 20260504233623 | 12 | 146 | 4.8 | 19.3 | 0.00 | 0.00 | 0.00 | 71 | 1008.9 |
| 20260504233005 | 12 | 136 | 6.4 | 22.5 | 0.00 | 0.00 | 0.00 | 70 | 1009.1 |
| 20260504232702 | 13 | 187 | 6.4 | 25.7 | 0.00 | 0.00 | 0.00 | 70 | 1008.9 |
| 20260504231802 | 13 | 166 | 6.4 | 25.7 | 0.00 | 0.00 | 0.00 | 68 | 1008.8 |
| 20260504231507 | 12 | 178 | 3.2 | 25.7 | 0.00 | 0.00 | 0.00 | 68 | 1009.0 |
| 20260504230902 | 13 | 166 | 8.0 | 22.5 | 0.00 | 0.00 | 0.00 | 67 | 1008.6 |
| 20260504230023 | 13 | 176 | 8.0 | 22.5 | 0.00 | 0.00 | 0.00 | 67 | 1008.6 |
| 20260504230007 | 13 | 190 | 8.0 | 22.5 | 0.00 | 0.00 | 0.00 | 67 | 1008.8 |
| 20260504225402 | 13 | 190 | 6.4 | 24.1 | 0.00 | 0.00 | 0.00 | 66 | 1008.6 |
| 20260504224505 | 13 | 252 | 4.8 | 24.1 | 0.00 | 0.00 | 0.00 | 65 | 1008.8 |
| 20260504224502 | 13 | 169 | 6.4 | 24.1 | 0.00 | 0.00 | 0.00 | 65 | 1008.5 |
| 20260504223602 | 13 | 188 | 6.4 | 22.5 | 0.00 | 0.00 | 0.00 | 64 | 1008.4 |
| 20260504223001 | 13 | 209 | 9.7 | 22.5 | 0.00 | 0.00 | 0.00 | 63 | 1008.7 |
| 20260504222702 | 14 | 191 | 8.0 | 24.1 | 0.00 | 0.00 | 0.00 | 62 | 1008.4 |
| 20260504221802 | 15 | 182 | 6.4 | 24.1 | 0.00 | 0.00 | 0.00 | 60 | 1008.5 |
| 20260504221507 | 14 | 224 | 6.4 | 19.3 | 0.00 | 0.00 | 0.00 | 59 | 1008.8 |
| 20260504220902 | 15 | 174 | 4.8 | 24.1 | 0.00 | 0.00 | 0.00 | 57 | 1008.5 |
| 20260504220004 | 15 | 172 | 6.4 | 24.1 | 0.00 | 0.00 | 0.00 | 55 | 1008.8 |
| 20260504220002 | 15 | 207 | 8.0 | 24.1 | 0.00 | 0.00 | 0.00 | 55 | 1008.5 |
| 20260504215402 | 16 | 185 | 6.4 | 29.0 | 0.00 | 0.00 | 0.00 | 52 | 1008.4 |
| 20260504214511 | 15 | 155 | 6.4 | 25.7 | 0.00 | 0.00 | 0.00 | 52 | 1008.7 |
| 20260504214502 | 16 | 183 | 6.4 | 24.1 | 0.00 | 0.00 | 0.00 | 52 | 1008.4 |
| 20260504213602 | 16 | 179 | 8.0 | 24.1 | 0.00 | 0.00 | 0.00 | 50 | 1008.4 |
| 20260504213026 | 16 | 207 | 3.2 | 27.4 | 0.00 | 0.00 | 0.00 | 50 | 1008.6 |
| 20260504212702 | 16 | 186 | 8.0 | 30.6 | 0.00 | 0.00 | 0.00 | 50 | 1008.4 |
| 20260504211802 | 16 | 188 | 9.7 | 30.6 | 0.00 | 0.00 | 0.00 | 48 | 1008.2 |
| 20260504211510 | 16 | 202 | 11.3 | 30.6 | 0.00 | 0.00 | 0.00 | 47 | 1008.6 |
| 20260504210903 | 16 | 191 | 8.0 | 30.6 | 0.00 | 0.00 | 0.00 | 47 | 1008.3 |
| 20260504210005 | 17 | 205 | 8.0 | 19.3 | 0.00 | 0.00 | 0.00 | 48 | 1008.6 |
| 20260504210003 | 17 | 164 | 6.4 | 20.9 | 0.00 | 0.00 | 0.00 | 48 | 1008.3 |
| 20260504205403 | 17 | 181 | 8.0 | 20.9 | 0.00 | 0.00 | 0.00 | 48 | 1008.3 |
| 20260504204505 | 17 | 166 | 6.4 | 29.0 | 0.00 | 0.00 | 0.00 | 49 | 1008.6 |
| 20260504204502 | 17 | 187 | 8.0 | 29.0 | 0.00 | 0.00 | 0.00 | 49 | 1008.3 |
| 20260504203603 | 17 | 186 | 6.4 | 22.5 | 0.00 | 0.00 | 0.00 | 49 | 1008.1 |
| 20260504203010 | 17 | 184 | 9.7 | 22.5 | 0.00 | 0.00 | 0.00 | 50 | 1008.5 |
| 20260504202702 | 17 | 185 | 6.4 | 22.5 | 0.00 | 0.00 | 0.00 | 52 | 1008.1 |
| 20260504201803 | 17 | 195 | 6.4 | 20.9 | 0.00 | 0.00 | 0.00 | 51 | 1008.0 |
| 20260504201509 | 17 | 197 | 3.2 | 19.3 | 0.00 | 0.00 | 0.00 | 50 | 1008.4 |
| 20260504200903 | 17 | 198 | 8.0 | 19.3 | 0.00 | 0.00 | 0.00 | 49 | 1008.1 |
| 20260504200008 | 17 | 82 | 3.2 | 24.1 | 0.00 | 0.00 | 0.00 | 48 | 1008.4 |
| 20260504200003 | 18 | 198 | 8.0 | 24.1 | 0.00 | 0.00 | 0.00 | 48 | 1008.1 |
| 20260504195403 | 18 | 199 | 8.0 | 24.1 | 0.00 | 0.00 | 0.00 | 49 | 1008.1 |
| 20260504194524 | 18 | 189 | 6.4 | 17.7 | 0.00 | 0.00 | 0.00 | 49 | 1008.1 |
| 20260504194510 | 17 | 254 | 4.8 | 17.7 | 0.00 | 0.00 | 0.00 | 49 | 1008.4 |
| 20260504193603 | 18 | 188 | 8.0 | 22.5 | 0.00 | 0.00 | 0.00 | 48 | 1008.1 |
| 20260504193103 | 18 | 163 | 11.3 | 25.7 | 0.00 | 0.00 | 0.00 | 46 | 1008.4 |
| 20260504192703 | 18 | 188 | 8.0 | 25.7 | 0.00 | 0.00 | 0.00 | 44 | 1008.2 |
| 20260504191824 | 18 | 207 | 11.3 | 25.7 | 0.00 | 0.00 | 0.00 | 42 | 1008.2 |
| 20260504191510 | 18 | 164 | 9.7 | 24.1 | 0.00 | 0.00 | 0.00 | 40 | 1008.5 |
| 20260504190903 | 19 | 199 | 8.0 | 20.9 | 0.00 | 0.00 | 0.00 | 43 | 1008.3 |
| 20260504190007 | 18 | 165 | 8.0 | 25.7 | 0.00 | 0.00 | 0.00 | 45 | 1008.7 |
| 20260504190003 | 18 | 189 | 8.0 | 30.6 | 0.00 | 0.00 | 0.00 | 45 | 1008.5 |
| 20260504185403 | 18 | 206 | 9.7 | 33.8 | 0.00 | 0.00 | 0.00 | 42 | 1008.5 |
| 20260504184517 | 18 | 173 | 6.4 | 33.8 | 0.00 | 0.00 | 0.00 | 40 | 1008.9 |
| 20260504184503 | 19 | 179 | 8.0 | 29.0 | 0.00 | 0.00 | 0.00 | 40 | 1008.6 |
| 20260504183603 | 19 | 195 | 8.0 | 27.4 | 0.00 | 0.00 | 0.00 | 40 | 1008.8 |
| 20260504183003 | 18 | 229 | 11.3 | 24.1 | 0.00 | 0.00 | 0.00 | 40 | 1009.1 |
| 20260504182703 | 19 | 199 | 8.0 | 32.2 | 0.00 | 0.00 | 0.00 | 41 | 1008.7 |
| 20260504181803 | 18 | 192 | 11.3 | 32.2 | 0.00 | 0.00 | 0.00 | 38 | 1008.7 |
| 20260504181612 | 18 | 219 | 11.3 | 32.2 | 0.00 | 0.00 | 0.00 | 38 | 1009.1 |
| 20260504180901 | 19 | 184 | 8.0 | 27.4 | 0.00 | 0.00 | 0.00 | 40 | 1008.9 |
| 20260504180106 | 18 | 171 | 4.8 | 24.1 | 0.00 | 0.00 | 0.00 | 43 | 1009.0 |
| 20260504180022 | 19 | 196 | 6.4 | 24.1 | 0.00 | 0.00 | 0.00 | 43 | 1008.8 |
| 20260504175401 | 19 | 178 | 6.4 | 25.7 | 0.00 | 0.00 | 0.00 | 44 | 1008.7 |
| 20260504174522 | 19 | 211 | 4.8 | 25.7 | 0.00 | 0.00 | 0.00 | 46 | 1008.8 |
| 20260504174510 | 18 | 355 | 4.8 | 20.9 | 0.00 | 0.00 | 0.00 | 46 | 1009.1 |
| 20260504173622 | 18 | 178 | 8.0 | 37.0 | 0.00 | 0.00 | 0.00 | 46 | 1008.8 |
| 20260504173013 | 18 | 219 | 8.0 | 37.0 | 0.00 | 0.00 | 0.00 | 43 | 1009.0 |
| 20260504172701 | 18 | 182 | 9.7 | 29.0 | 0.00 | 0.00 | 0.00 | 46 | 1008.8 |
| 20260504171802 | 19 | 198 | 9.7 | 29.0 | 0.00 | 0.00 | 0.00 | 45 | 1008.8 |
| 20260504171503 | 18 | 126 | 6.4 | 27.4 | 0.00 | 0.00 | 0.00 | 46 | 1009.1 |
| 20260504170902 | 19 | 176 | 6.4 | 20.9 | 0.00 | 0.00 | 0.00 | 43 | 1008.9 |
| 20260504150902 | 19 | 216 | 6.4 | 30.6 | 0.00 | 0.00 | 0.00 | 36 | 1009.6 |
| 20260504140902 | 17 | 197 | 3.2 | 17.7 | 0.00 | 0.00 | 0.00 | 42 | 1010.1 |
| 20260504081802 | 8 | 167 | 0.0 | 3.2 | 0.00 | 0.00 | 0.00 | 66 | 1010.1 |
| 20260504081501 | 8 | 168 | 0.0 | 3.2 | 0.00 | 0.00 | 0.00 | 66 | 1010.4 |
| 20260504080901 | 8 | 172 | 0.0 | 3.2 | 0.00 | 0.00 | 0.00 | 66 | 1010.0 |
| 20260504050011 | 6 | 138 | 0.0 | 3.2 | 0.00 | 0.00 | 0.00 | 67 | 1010.0 |
| 20260504050002 | 7 | 104 | 0.0 | 3.2 | 0.00 | 0.00 | 0.00 | 67 | 1009.7 |
| 20260504045402 | 7 | 69 | 0.0 | 3.2 | 0.00 | 0.00 | 0.00 | 67 | 1009.8 |
| 20260504044506 | 7 | 80 | 0.0 | 3.2 | 0.00 | 0.00 | 0.00 | 66 | 1010.2 |
| 20260504044502 | 7 | 54 | 0.0 | 3.2 | 0.00 | 0.00 | 0.00 | 66 | 1009.8 |
| 20260504043603 | 7 | 127 | 0.0 | 4.8 | 0.00 | 0.00 | 0.00 | 66 | 1009.9 |
| 20260504043112 | 6 | 128 | 0.0 | 1.6 | 0.00 | 0.00 | 0.00 | 66 | 1010.2 |
| 20260504042702 | 6 | 88 | 0.0 | 3.2 | 0.00 | 0.00 | 0.00 | 65 | 1009.8 |
| 20260504041802 | 6 | 103 | 0.0 | 3.2 | 0.00 | 0.00 | 0.00 | 65 | 1009.8 |
| 20260504041507 | 6 | 143 | 0.0 | 3.2 | 0.00 | 0.00 | 0.00 | 64 | 1010.1 |
| 20260504040902 | 6 | 62 | 0.0 | 3.2 | 0.00 | 0.00 | 0.00 | 64 | 1009.8 |
| 20260504040006 | 6 | 103 | 0.0 | 3.2 | 0.00 | 0.00 | 0.00 | 64 | 1010.1 |
| 20260504040003 | 6 | 89 | 0.0 | 3.2 | 0.00 | 0.00 | 0.00 | 64 | 1009.7 |
| 20260504035402 | 6 | 192 | 0.0 | 3.2 | 0.00 | 0.00 | 0.00 | 64 | 1009.7 |
| 20260504034517 | 5 | 69 | 0.0 | 3.2 | 0.00 | 0.00 | 0.00 | 62 | 1009.9 |
| 20260504034502 | 6 | 84 | 0.0 | 4.8 | 0.00 | 0.00 | 0.00 | 62 | 1009.6 |
| 20260504033602 | 5 | 130 | 0.0 | 4.8 | 0.00 | 0.00 | 0.00 | 62 | 1009.5 |
| 20260504033006 | 5 | 150 | 0.0 | 3.2 | 0.00 | 0.00 | 0.00 | 64 | 1009.8 |
| 20260504032702 | 5 | 110 | 0.0 | 3.2 | 0.00 | 0.00 | 0.00 | 63 | 1009.4 |